Home   Weather   Owen Sound   Past weeks
Flag for Canada

Past Weather in Owen Sound, Ontario, Canada — Yesterday and Last 2 Weeks

Now
68 °F

Passing clouds.


Feels Like: 68 °F
Forecast: 66 / 50 °F
Wind: 12 mph from South

Location: Wiarton

Current Time: May 29, 2020 at 1:12:52 am

Latest Report: May 29, 2020 at 12:00 am


Visibility: 15 mi

Pressure: 29.76 "Hg

Humidity: 88%

Dew Point: 64 °F

Location of Owen SoundLocation

Past Weather in Owen Sound — Graph

°F

Owen Sound Temperature Yesterday

Maximum temperature yesterday: 77 °F (at 11:00 am)
Minimum temperature yesterday: 64 °F (at 1:00 am)
Average temperature yesterday: 72 °F

High & Low Weather Summary for the Past Weeks

 TemperatureHumidityPressure
High86 °F (May 27, 12:00 pm)100% (May 15, 12:10 am)30.34 "Hg (May 15, 12:10 am)
Low34 °F (May 13, 11:00 pm)25% (May 20, 5:00 pm)29.78 "Hg (May 28, 11:00 pm)
Average59 °F72%30.07 "Hg
* Reported May 13 11:00 pm — May 28 11:00 pm, Owen Sound. Weather by CustomWeather, © 2020

Note: Actual official high and low records may vary slightly from our data, if they occured in-between our weather recording intervals... More about our weather records

Owen Sound Weather History for the Previous 24 Hours

Scroll right to see more
 ConditionsComfort  
Time TempWeatherWind HumidityBarometerVisibility
11:00 pm
Thu, May 28
70 °FPassing clouds.13 mph83%29.78 "Hg15 mi
10:00 pm70 °FPassing clouds.10 mph83%29.78 "Hg15 mi
9:00 pm68 °FPassing clouds.6 mph83%29.78 "Hg15 mi
8:00 pm73 °FBroken clouds.7 mph69%29.79 "Hg15 mi
7:00 pm75 °FScattered showers. Broken clouds.9 mph65%29.80 "Hg15 mi
6:00 pm75 °FScattered showers. Scattered clouds.8 mph69%29.82 "Hg15 mi
5:00 pm73 °FScattered showers. Broken clouds.8 mph74%29.83 "Hg15 mi
4:00 pm77 °FPartly sunny.10 mph69%29.84 "Hg15 mi
3:00 pm75 °FPartly sunny.9 mph74%29.86 "Hg15 mi
2:00 pm72 °FScattered showers. More clouds than sun.7 mph83%29.89 "Hg15 mi
1:00 pm73 °FMostly cloudy.6 mph74%29.90 "Hg15 mi
12:00 pm75 °FMore clouds than sun.8 mph69%29.90 "Hg15 mi
11:00 am77 °FCloudy.14 mph65%29.91 "Hg15 mi
10:00 am75 °FBroken clouds.6 mph69%29.92 "Hg15 mi
9:00 am73 °FBroken clouds.8 mph69%29.93 "Hg15 mi
8:00 am72 °FPartly sunny.10 mph73%29.93 "Hg15 mi
7:00 am70 °FBroken clouds.10 mph73%29.94 "Hg15 mi
6:00 am70 °FPartly sunny.12 mph73%29.94 "Hg15 mi
5:00 am70 °FPassing clouds.10 mph73%29.94 "Hg15 mi
4:00 am70 °FPassing clouds.9 mph73%29.95 "Hg15 mi
3:00 am70 °FPassing clouds.8 mph73%29.96 "Hg15 mi
2:00 am66 °FPassing clouds.6 mph78%29.96 "Hg15 mi
1:00 am64 °FPassing clouds.2 mph88%29.98 "Hg15 mi
Weather by CustomWeather, © 2020

See weather overview

Advertising